Аэропорт Баку (UBBB)

baku-airport

Международный аэропорт Баку

ICAO: UBBB, IATA: GYD

Бакинский международный аэропорт имени Гейдара Алиева — один из пяти международных аэропортов, обслуживающих Азербайджан. Находится в 25 километрах к востоку от Баку. Порт приписки национальной авиакомпании «Азербайджанские авиалинии».

Принимаемые типы ВС
Ан-12, Ан-24, Ан-26, Ан-28, Ан-30, Ан-32, Ан-72, Ан-74, Ан-124(по согласованию), Ил-62, Ил-76, Ту-134, Ту-154, Як-40, Як-42, Airbus A319, Airbus A320, Airbus A321, Boeing 737, Boeing 747, Boeing 757, Boeing 767 и др. типы ВС 3-4 класса, вертолёты всех типов.

 Схемы: Jeppesen

Сценарии: бесплатные демо-версии с уменьшенным разрешением:

 fs9     fsx     Prepar

платные: http://www.drzewiecki-design.net/

METAR:

UBBB 301300Z 06012KT CAVOK 30/14 Q1009 R88/CLRD// NOSIG

TAF TAF UBBB 301109Z 3012/3112 18006KT CAVOK TX31/3012Z TN23/3102Z TEMPO 3012/3015 13006KT TEMPO 3015/3020 VRB04KT TEMPO 3020/3106 21008KT FEW050CB PROB40 TEMPO 3022/3105 VRB10KT -TSRA SCT040CB BECMG 3106/3108 17012KT